Regional Weather Roundup
Issued by NWS

Home | Current Version | Previous Version | Graphics & Text | Print | Product List | Glossary On
Versions: 1 2 3 4 5 6 7 8 9 10 11 12 13 14 15 16 17 18 19 20 21 22 23 24 25 26 27 28 29 30 31 32 33 34 35 36 37 38 39 40 41 42 43 44 45 46 47 48 49 50
000
ASUS43 KDMX 120006
RWRIA

WEATHER ROUNDUP FOR IOWA
NATIONAL WEATHER SERVICE DES MOINES IA
600 PM CST MON DEC 11 2017

NOTE: "FAIR" INDICATES FEW OR NO CLOUDS BELOW 12,000 FEET WITH NO
SIGNIFICANT WEATHER AND/OR OBSTRUCTIONS TO VISIBILITY.

* - THESE STATIONS ARE NOT NWS STATIONS...THUS NOT UNDER NWS
QUALITY CONTROL.  THEY ALSO DO NOT REPORT WEATHER SUCH
AS PRECIPITATION OR FOG.

IAZ001>003-012>014-020>022-031>034-043>046-120100-
   NORTHWEST IOWA

CITY           SKY/WX    TMP DP  RH WIND       PRES   REMARKS
CARROLL *      CLOUDY    32  23  69 N21G31    30.12R WCI  20
CHEROKEE *     MOCLDY    29  23  76 N15G25    30.17R WCI  18
DENISON *      CLOUDY    32  23  69 N16G23    30.16R WCI  21
LE MARS *      CLEAR     30  23  74 N17       30.20R WCI  18
ORANGE CITY *  CLEAR     28  25  86 NW15G23   30.18R WCI  17
SHELDON *      MOCLDY    27  21  80 N21       30.16R WCI  13
SIOUX CITY     CLEAR     34  24  67 N23       30.20R WCI  22
6HR MIN TEMP:  34; 6HR MAX TEMP:  43;

SPENCER        MOCLDY    25  17  72 N28G39    30.15R WCI   9
6HR MIN TEMP:  25; 6HR MAX TEMP:  39;

STORM LAKE *   CLOUDY    28  21  74 N23G31    30.13R WCI  14
$$

IAZ055>058-069>071-079>083-090>094-120100-
   SOUTHWEST IOWA

CITY           SKY/WX    TMP DP  RH WIND       PRES   REMARKS
ATLANTIC *     CLOUDY    36  25  64 N20G29    30.13R WCI  25
AUDUBON *      CLOUDY    34  25  69 N17G24    30.13R WCI  23
CLARINDA *     CLOUDY    41  30  65 N24G36    30.14
COUNCIL BLFS * CLOUDY    37  27  65 N21G31    30.15R WCI  27
CRESTON *      CLOUDY    36  27  69 N23G35    30.09R WCI  24
HARLAN  *      CLOUDY    34  25  69 N18G26    30.18R WCI  23
LAMONI         CLOUDY    39  28  64 NW31G40   30.04R WCI  27
6HR MIN TEMP:  39; 6HR MAX TEMP:  47; 6HR PCP: TRACE;

RED OAK *      CLOUDY    39  28  65 N23G32    30.14R WCI  29
SHENANDOAH *   CLOUDY    41  28  60 N24G37    30.16R
$$

IAZ047>049-059>061-072>074-084-120100-
   CENTRAL IOWA

CITY           SKY/WX    TMP DP  RH WIND       PRES   REMARKS
AMES           CLOUDY    34  29  82 NW25G33   30.04R WCI  21
6HR MIN TEMP:  34; 6HR MAX TEMP:  42; 6HR PCP: TRACE;

ANKENY *       CLOUDY    36  30  80 NW21G28   30.06R WCI  24
BOONE *        CLOUDY    34  27  75 NW21G32   30.04R WCI  22
CHARITON *     MIX PCPN  37  30  75 NW28      30.02R WCI  25
DES MOINES     FLURRIES  35  30  82 NW23G30   30.05R WCI  23
6HR MIN TEMP:  35; 6HR MAX TEMP:  45; 6HR PCP: TRACE;

GRINNELL*      CLOUDY    37  31  79 NW21G29   29.97R WCI  26
KNOXVILLE *    CLOUDY    37  30  75 NW21G30   30.00R WCI  27
MARSHALLTOWN   CLOUDY    36  31  82 N20G28    29.98R WCI  25
6HR MIN TEMP:  36; 6HR MAX TEMP:  41; 6HR PCP:  0.01;

NEWTON *       CLOUDY    37  30  75 NW24G32   30.00R WCI  26
PELLA *        CLOUDY    38  31  74 NW24G32   30.01R WCI  27
PERRY *        CLOUDY    33  26  76 NW21G32   30.09R WCI  21
$$

IAZ004>006-015-016-023>025-035-036-120100-
   NORTH CENTRAL IOWA

CITY           SKY/WX    TMP DP  RH WIND       PRES   REMARKS
ALGONA *       CLOUDY    28  25  86 NW26G32   30.08R WCI  13
CLARION *      CLOUDY    32  28  86 NW30G38   30.04R WCI  18
ESTHERVILLE    CLOUDY    23  18  81 N24G40    30.13R WCI   7
6HR MIN TEMP:  23; 6HR MAX TEMP:  36;

FORT DODGE *   CLOUDY    30  23  75 NW18G28   30.09R WCI  18
MASON CITY     CLOUDY    32  23  69 N28G35    30.02R WCI  18
6HR MIN TEMP:  32; 6HR MAX TEMP:  37; 6HR PCP: TRACE;

FOREST CITY *  CLOUDY    32  28  86 NW15G30   30.03R WCI  22
WEBSTER CITY * MIX PCPN  32  25  74 NW28G36   30.04R WCI  18
IOWA FALLS *   CLOUDY    36  30  79 NW21G32   30.00R WCI  24
$$

IAZ007>011-017>019-026>030-037>042-050>054-066-120100-
   NORTHEAST IOWA

CITY           SKY/WX    TMP DP  RH WIND       PRES   REMARKS
CEDAR RAPIDS   CLOUDY    36  32  85 NW21G31   29.90R WCI  25
6HR MIN TEMP:  33; 6HR MAX TEMP:  44; 6HR PCP:  0.03;

CHARLES CITY * CLOUDY    34  30  86 N22G35    29.96R WCI  22
CLINTON *      CLOUDY    33  31  92 NW17      29.85R WCI  22
DECORAH *      CLOUDY    32  27  80 N24G33    29.91R WCI  19
DUBUQUE        CLOUDY    32  29  88 N18G26    29.85R WCI  20
6HR MIN TEMP:  31; 6HR MAX TEMP:  34; 6HR PCP:  0.23;

MONTICELLO *   CLOUDY    36  32  87 NW20      29.87R WCI  25
OELWEIN *      CLOUDY    34  32  93 N20G33    29.93R WCI  22
WATERLOO       CLOUDY    34  27  75 N28G38    29.95R WCI  21
6HR MIN TEMP:  33; 6HR MAX TEMP:  37; 6HR PCP:  0.03;

$$

IAZ064-065-067-068-078-120100-
   EAST CENTRAL IOWA

CITY           SKY/WX    TMP DP  RH WIND       PRES   REMARKS
DAVENPORT      CLOUDY    34  32  92 NW15      29.88R WCI  24
6HR MIN TEMP:  33; 6HR MAX TEMP:  43; 6HR PCP:  0.01;

IOWA CITY      CLOUDY    39  34  82 NW18G30   29.92R WCI  30
6HR MIN TEMP:  35; 6HR MAX TEMP:  46; 6HR PCP:  0.03;

MT. PLEASANT * CLOUDY    38  34  85 NW17G25   29.92R WCI  29
MUSCATINE *    CLOUDY    37  34  87 NW15      29.90R WCI  28
QUAD CITIES    CLOUDY    36  34  92 NW16      29.85R WCI  26
6HR MIN TEMP:  36; 6HR MAX TEMP:  46; 6HR PCP:  0.01;

$$

IAZ062-063-075>077-085>089-095>099-120100-
   SOUTHEAST IOWA

CITY           SKY/WX    TMP DP  RH WIND       PRES   REMARKS
BURLINGTON     LGT RAIN  38  36  92 NW13G23   29.89R WCI  30
6HR MIN TEMP:  37; 6HR MAX TEMP:  48; 6HR PCP: TRACE;

FAIRFIELD *    CLOUDY    39  32  75 NW20G32   29.94R WCI  30
FORT MADISON * LGT RAIN  39  37  93 NW17G23   29.91R WCI  30
KEOKUK *       RAIN      41  36  81 NW10G23   29.91R
OSKALOOSA *    CLOUDY    38  31  77 NW21G26   29.98R WCI  28
OTTUMWA        CLOUDY    40  31  70 NW24G32   29.96R WCI  29
6HR MIN TEMP:  40; 6HR MAX TEMP:  49; 6HR PCP: TRACE;

WASHINGTON *   CLOUDY    37  36  93 NW21      29.93R WCI  27
$$

ABBREVIATIONS USED IN REMARKS
   TC - TEMPERATURES IN CELSIUS
  WCI - WIND CHILL INDEX
   HX - HEAT INDEX
  VSB - VISIBILITY
$$





USA.gov is the U.S. government's official web portal to all federal, state and local government web resources and services.